Year,Month,Day,Hour,Minute,Value (Times are PST for temperature in C)
2021,06,07,00,00,9.40
2021,06,07,00,01,9.40
2021,06,07,00,02,9.40
2021,06,07,00,03,9.40
2021,06,07,00,04,9.40
2021,06,07,00,05,9.40
2021,06,07,00,06,9.30
2021,06,07,00,07,9.30
2021,06,07,00,08,9.20
2021,06,07,00,09,9.20
2021,06,07,00,10,9.10
2021,06,07,00,11,9.10
2021,06,07,00,12,9.00
2021,06,07,00,13,9.00
2021,06,07,00,14,8.90
2021,06,07,00,15,8.80
2021,06,07,00,16,8.70
2021,06,07,00,17,8.70
2021,06,07,00,18,8.70
2021,06,07,00,19,8.60
2021,06,07,00,20,8.60
2021,06,07,00,21,8.60
2021,06,07,00,22,8.50
2021,06,07,00,23,8.50
2021,06,07,00,24,8.40
2021,06,07,00,25,8.40
2021,06,07,00,26,8.40
2021,06,07,00,27,8.30
2021,06,07,00,28,8.30
2021,06,07,00,29,8.30
2021,06,07,00,30,8.30
2021,06,07,00,31,8.30
2021,06,07,00,32,8.30
2021,06,07,00,33,8.20
2021,06,07,00,34,8.20
2021,06,07,00,35,8.20
2021,06,07,00,36,8.20
2021,06,07,00,37,8.20
2021,06,07,00,38,8.20
2021,06,07,00,39,8.20
2021,06,07,00,40,8.20
2021,06,07,00,41,8.20
2021,06,07,00,42,8.20
2021,06,07,00,43,8.20
2021,06,07,00,44,8.20
2021,06,07,00,45,8.20
2021,06,07,00,46,8.20
2021,06,07,00,47,8.20
2021,06,07,00,48,8.20
2021,06,07,00,49,8.20
2021,06,07,00,50,8.20
2021,06,07,00,51,8.20
2021,06,07,00,52,8.20
2021,06,07,00,53,8.20
2021,06,07,00,54,8.20
2021,06,07,00,55,8.20
2021,06,07,00,56,8.20
2021,06,07,00,57,8.20
2021,06,07,00,58,8.20
2021,06,07,00,59,8.20
2021,06,07,01,00,8.20
2021,06,07,01,01,8.20
2021,06,07,01,02,8.20
2021,06,07,01,03,8.20
2021,06,07,01,04,8.20
2021,06,07,01,05,8.20
2021,06,07,01,06,8.20
2021,06,07,01,07,8.20
2021,06,07,01,08,8.20
2021,06,07,01,09,8.20
2021,06,07,01,10,8.20
2021,06,07,01,11,8.20
2021,06,07,01,12,8.20
2021,06,07,01,13,8.20
2021,06,07,01,14,8.20
2021,06,07,01,15,8.20
2021,06,07,01,16,8.20
2021,06,07,01,17,8.20
2021,06,07,01,18,8.20
2021,06,07,01,19,8.20
2021,06,07,01,20,8.20
2021,06,07,01,21,8.20
2021,06,07,01,22,8.20
2021,06,07,01,23,8.20
2021,06,07,01,24,8.20
2021,06,07,01,25,8.20
2021,06,07,01,26,8.20
2021,06,07,01,27,8.20
2021,06,07,01,28,8.20
2021,06,07,01,29,8.20
2021,06,07,01,30,8.20
2021,06,07,01,31,8.20
2021,06,07,01,32,8.20
2021,06,07,01,33,8.20
2021,06,07,01,34,8.20
2021,06,07,01,35,8.20
2021,06,07,01,36,8.20
2021,06,07,01,37,8.20
2021,06,07,01,38,8.20
2021,06,07,01,39,8.20
2021,06,07,01,40,8.20
2021,06,07,01,41,8.20
2021,06,07,01,42,8.20
2021,06,07,01,43,8.20
2021,06,07,01,44,8.20
2021,06,07,01,45,8.20
2021,06,07,01,46,8.10
2021,06,07,01,47,8.10
2021,06,07,01,48,8.10
2021,06,07,01,49,8.10
2021,06,07,01,50,8.10
2021,06,07,01,51,8.10
2021,06,07,01,52,8.10
2021,06,07,01,53,8.10
2021,06,07,01,54,8.10
2021,06,07,01,55,8.10
2021,06,07,01,56,8.10
2021,06,07,01,57,8.10
2021,06,07,01,58,8.10
2021,06,07,01,59,8.10
2021,06,07,02,00,8.10
2021,06,07,02,01,8.10
2021,06,07,02,02,8.10
2021,06,07,02,03,8.10
2021,06,07,02,04,8.10
2021,06,07,02,05,8.10
2021,06,07,02,06,8.10
2021,06,07,02,07,8.10
2021,06,07,02,08,8.10
2021,06,07,02,09,8.10
2021,06,07,02,10,8.00
2021,06,07,02,11,8.00
2021,06,07,02,12,8.00
2021,06,07,02,13,8.00
2021,06,07,02,14,8.00
2021,06,07,02,15,7.90
2021,06,07,02,16,7.90
2021,06,07,02,17,7.90
2021,06,07,02,18,7.90
2021,06,07,02,19,7.90
2021,06,07,02,20,7.90
2021,06,07,02,21,7.90
2021,06,07,02,22,7.90
2021,06,07,02,23,7.90
2021,06,07,02,24,7.90
2021,06,07,02,25,7.90
2021,06,07,02,26,7.90
2021,06,07,02,27,7.90
2021,06,07,02,28,7.90
2021,06,07,02,29,7.90
2021,06,07,02,30,7.90
2021,06,07,02,31,7.90
2021,06,07,02,32,7.90
2021,06,07,02,33,7.90
2021,06,07,02,34,7.90
2021,06,07,02,35,7.90
2021,06,07,02,36,7.90
2021,06,07,02,37,7.90
2021,06,07,02,38,7.90
2021,06,07,02,39,7.90
2021,06,07,02,40,7.90
2021,06,07,02,41,7.90
2021,06,07,02,42,7.90
2021,06,07,02,43,7.90
2021,06,07,02,44,7.90
2021,06,07,02,45,7.90
2021,06,07,02,46,7.90
2021,06,07,02,47,7.80
2021,06,07,02,48,7.80
2021,06,07,02,49,7.80
2021,06,07,02,50,7.80
2021,06,07,02,51,7.80
2021,06,07,02,52,7.80
2021,06,07,02,53,7.80
2021,06,07,02,54,7.80
2021,06,07,02,55,7.80
2021,06,07,02,56,7.80
2021,06,07,02,57,7.70
2021,06,07,02,58,7.70
2021,06,07,02,59,7.70
2021,06,07,03,00,7.70
2021,06,07,03,01,7.70
2021,06,07,03,02,7.60
2021,06,07,03,03,7.60
2021,06,07,03,04,7.60
2021,06,07,03,05,7.60
2021,06,07,03,06,7.60
2021,06,07,03,07,7.50
2021,06,07,03,08,7.50
2021,06,07,03,09,7.50
2021,06,07,03,10,7.50
2021,06,07,03,11,7.40
2021,06,07,03,12,7.40
2021,06,07,03,13,7.40
2021,06,07,03,14,7.40
2021,06,07,03,15,7.40
2021,06,07,03,16,7.40
2021,06,07,03,17,7.40
2021,06,07,03,18,7.40
2021,06,07,03,19,7.30
2021,06,07,03,20,7.30
2021,06,07,03,21,7.30
2021,06,07,03,22,7.30
2021,06,07,03,23,7.30
2021,06,07,03,24,7.30
2021,06,07,03,25,7.30
2021,06,07,03,26,7.30
2021,06,07,03,27,7.30
2021,06,07,03,28,7.30
2021,06,07,03,29,7.40
2021,06,07,03,30,7.40
2021,06,07,03,31,7.40
2021,06,07,03,32,7.40
2021,06,07,03,33,7.40
2021,06,07,03,34,7.40
2021,06,07,03,35,7.40
2021,06,07,03,36,7.40
2021,06,07,03,37,7.40
2021,06,07,03,38,7.40
2021,06,07,03,39,7.50
2021,06,07,03,40,7.50
2021,06,07,03,41,7.40
2021,06,07,03,42,7.50
2021,06,07,03,43,7.50
2021,06,07,03,44,7.50
2021,06,07,03,45,7.50
2021,06,07,03,46,7.50
2021,06,07,03,47,7.50
2021,06,07,03,48,7.50
2021,06,07,03,49,7.50
2021,06,07,03,50,7.50
2021,06,07,03,51,7.60
2021,06,07,03,52,7.60
2021,06,07,03,53,7.60
2021,06,07,03,54,7.50
2021,06,07,03,55,7.50
2021,06,07,03,56,7.50
2021,06,07,03,57,7.50
2021,06,07,03,58,7.60
2021,06,07,03,59,7.60
2021,06,07,04,00,7.60
2021,06,07,04,01,7.60
2021,06,07,04,02,7.60
2021,06,07,04,03,7.60
2021,06,07,04,04,7.60
2021,06,07,04,05,7.60
2021,06,07,04,06,7.60
2021,06,07,04,07,7.60
2021,06,07,04,08,7.50
2021,06,07,04,09,7.50
2021,06,07,05,04,7.20
2021,06,07,05,05,7.10
2021,06,07,05,06,7.10
2021,06,07,05,07,7.10
2021,06,07,05,08,7.10
2021,06,07,05,09,7.10
2021,06,07,05,10,7.10
2021,06,07,05,11,7.10
2021,06,07,05,12,7.10
2021,06,07,05,13,7.10
2021,06,07,05,14,7.00
2021,06,07,05,15,7.00
2021,06,07,05,16,7.00
2021,06,07,05,17,6.90
2021,06,07,05,18,6.90
2021,06,07,05,19,6.90
2021,06,07,05,20,6.90
2021,06,07,05,21,6.80
2021,06,07,05,22,6.80
2021,06,07,05,23,6.80
2021,06,07,05,24,6.80
2021,06,07,05,25,6.80
2021,06,07,05,26,6.80
2021,06,07,05,27,6.80
2021,06,07,05,28,6.80
2021,06,07,05,29,6.80
2021,06,07,05,30,6.80
2021,06,07,05,31,6.80
2021,06,07,05,32,6.90
2021,06,07,05,33,6.80
2021,06,07,05,34,6.80
2021,06,07,05,35,6.80
2021,06,07,05,36,6.80
2021,06,07,05,37,6.80
2021,06,07,05,38,6.70
2021,06,07,05,39,6.60
2021,06,07,05,40,6.60
2021,06,07,05,41,6.60
2021,06,07,05,42,6.50
2021,06,07,05,43,6.50
2021,06,07,05,44,6.50
2021,06,07,05,45,6.40
2021,06,07,05,46,6.40
2021,06,07,05,47,6.40
2021,06,07,05,48,6.40
2021,06,07,05,49,6.30
2021,06,07,05,50,6.30
2021,06,07,05,51,6.30
2021,06,07,05,52,6.30
2021,06,07,05,53,6.30
2021,06,07,05,54,6.30
2021,06,07,05,55,6.20
2021,06,07,05,56,6.20
2021,06,07,05,57,6.20
2021,06,07,05,58,6.20
2021,06,07,05,59,6.20
2021,06,07,06,00,6.20
2021,06,07,06,01,6.20
2021,06,07,06,02,6.20
2021,06,07,06,03,6.20
2021,06,07,06,04,6.20
2021,06,07,06,05,6.20
2021,06,07,06,06,6.20
2021,06,07,06,07,6.20
2021,06,07,06,08,6.20
2021,06,07,06,09,6.20
2021,06,07,06,10,6.20
2021,06,07,06,11,6.20
2021,06,07,06,12,6.20
2021,06,07,06,13,6.20
2021,06,07,06,14,6.20
2021,06,07,06,15,6.20
2021,06,07,06,16,6.20
2021,06,07,06,17,6.20
2021,06,07,06,18,6.20
2021,06,07,06,19,6.20
2021,06,07,06,20,6.20
2021,06,07,06,21,6.20
2021,06,07,06,22,6.20
2021,06,07,06,23,6.20
2021,06,07,06,24,6.20
2021,06,07,06,25,6.30
2021,06,07,06,26,6.30
2021,06,07,06,27,6.30
2021,06,07,06,28,6.40
2021,06,07,06,29,6.40
2021,06,07,06,30,6.40
2021,06,07,06,31,6.40
2021,06,07,06,32,6.40
2021,06,07,06,33,6.50
2021,06,07,06,34,6.50
2021,06,07,06,35,6.60
2021,06,07,06,36,6.60
2021,06,07,06,37,6.60
2021,06,07,06,38,6.60
2021,06,07,06,39,6.70
2021,06,07,06,40,6.70
2021,06,07,06,41,6.70
2021,06,07,06,42,6.80
2021,06,07,06,43,6.80
2021,06,07,06,44,6.80
2021,06,07,06,45,6.80
2021,06,07,06,46,6.90
2021,06,07,06,47,6.90
2021,06,07,06,48,6.90
2021,06,07,06,49,7.00
2021,06,07,06,50,7.00
2021,06,07,06,51,7.00
2021,06,07,06,52,7.10
2021,06,07,06,53,7.10
2021,06,07,06,54,7.10
2021,06,07,06,55,7.20
2021,06,07,06,56,7.20
2021,06,07,06,57,7.30
2021,06,07,06,58,7.30
2021,06,07,06,59,7.40
2021,06,07,07,00,7.40
2021,06,07,07,01,7.50
2021,06,07,07,02,7.60
2021,06,07,07,03,7.70
2021,06,07,07,04,7.80
2021,06,07,07,05,7.80
2021,06,07,07,06,7.90
2021,06,07,07,07,8.00
2021,06,07,07,08,8.10
2021,06,07,07,09,8.20
2021,06,07,07,10,8.30
2021,06,07,07,11,8.40
2021,06,07,07,12,8.50
2021,06,07,07,13,8.60
2021,06,07,07,14,8.70
2021,06,07,07,15,8.80
2021,06,07,07,16,8.90
2021,06,07,07,17,9.00
2021,06,07,07,18,9.00
2021,06,07,07,19,9.10
2021,06,07,07,20,9.20
2021,06,07,07,21,9.30
2021,06,07,07,22,9.30
2021,06,07,07,23,9.30
2021,06,07,07,24,9.30
2021,06,07,07,25,9.30
2021,06,07,07,26,9.30
2021,06,07,07,27,9.40
2021,06,07,07,28,9.40
2021,06,07,07,29,9.40
2021,06,07,07,30,9.40
2021,06,07,07,31,9.40
2021,06,07,07,32,9.40
2021,06,07,07,33,9.40
2021,06,07,07,34,9.50
2021,06,07,07,35,9.50
2021,06,07,07,36,9.60
2021,06,07,07,37,9.60
2021,06,07,07,38,9.70
2021,06,07,07,39,9.70
2021,06,07,07,40,9.70
2021,06,07,07,41,9.80
2021,06,07,07,42,9.80
2021,06,07,07,43,9.80
2021,06,07,07,44,9.90
2021,06,07,07,45,9.90
2021,06,07,07,46,9.90
2021,06,07,07,47,10.00
2021,06,07,07,48,10.00
2021,06,07,07,49,10.00
2021,06,07,07,50,10.10
2021,06,07,07,51,10.10
2021,06,07,07,52,10.10
2021,06,07,07,53,10.10
2021,06,07,07,54,10.10
2021,06,07,07,55,10.10
2021,06,07,07,56,10.10
2021,06,07,07,57,10.10
2021,06,07,07,58,10.20
2021,06,07,07,59,10.20
2021,06,07,08,00,10.20
2021,06,07,08,01,10.20
2021,06,07,08,02,10.20
2021,06,07,08,03,10.20
2021,06,07,08,04,10.20
2021,06,07,08,05,10.20
2021,06,07,08,06,10.30
2021,06,07,08,07,10.20
2021,06,07,08,08,10.20
2021,06,07,08,09,10.20
2021,06,07,08,10,10.20
2021,06,07,08,11,10.20
2021,06,07,08,12,10.20
2021,06,07,08,13,10.10
2021,06,07,08,14,10.10
2021,06,07,08,15,10.00
2021,06,07,08,16,10.00
2021,06,07,08,17,9.90
2021,06,07,08,18,9.90
2021,06,07,08,19,9.90
2021,06,07,08,20,9.90
2021,06,07,08,21,9.80
2021,06,07,08,22,9.80
2021,06,07,08,23,9.80
2021,06,07,08,24,9.80
2021,06,07,08,25,9.80
2021,06,07,08,26,9.80
2021,06,07,08,27,9.90
2021,06,07,08,28,9.90
2021,06,07,08,29,10.00
2021,06,07,08,30,10.10
2021,06,07,08,31,10.30
2021,06,07,08,32,10.30
2021,06,07,08,33,10.30
2021,06,07,08,34,10.40
2021,06,07,08,35,10.40
2021,06,07,08,36,10.40
2021,06,07,08,37,10.50
2021,06,07,08,38,10.50
2021,06,07,08,39,10.50
2021,06,07,08,40,10.50
2021,06,07,08,41,10.50
2021,06,07,08,42,10.60
2021,06,07,08,43,10.70
2021,06,07,08,44,10.70
2021,06,07,08,45,10.70
2021,06,07,08,46,10.70
2021,06,07,08,47,10.70
2021,06,07,08,48,10.70
2021,06,07,08,49,10.70
2021,06,07,08,50,10.80
2021,06,07,08,51,10.90
2021,06,07,08,52,10.90
2021,06,07,08,53,10.90
2021,06,07,08,54,10.90
2021,06,07,08,55,10.80
2021,06,07,08,56,10.80
2021,06,07,08,57,10.80
2021,06,07,08,58,10.90
2021,06,07,08,59,10.90
2021,06,07,09,00,10.80
2021,06,07,09,01,10.80
2021,06,07,09,02,10.80
2021,06,07,09,03,10.80
2021,06,07,09,04,10.80
2021,06,07,09,05,10.80
2021,06,07,09,06,10.80
2021,06,07,09,07,10.70
2021,06,07,09,08,10.70
2021,06,07,09,09,10.70
2021,06,07,09,10,10.70
2021,06,07,09,11,10.70
2021,06,07,09,12,10.70
2021,06,07,09,13,10.80
2021,06,07,09,14,10.80
2021,06,07,09,15,10.80
2021,06,07,09,16,10.80
2021,06,07,09,17,10.80
2021,06,07,09,18,10.80
2021,06,07,09,19,10.80
2021,06,07,09,20,10.90
2021,06,07,09,21,10.90
2021,06,07,09,22,11.00
2021,06,07,09,23,11.00
2021,06,07,09,24,11.10
2021,06,07,09,25,11.20
2021,06,07,09,26,11.30
2021,06,07,09,27,11.40
2021,06,07,09,28,11.50
2021,06,07,09,29,11.60
2021,06,07,09,30,11.70
2021,06,07,09,31,11.70
2021,06,07,09,32,11.80
2021,06,07,09,33,11.90
2021,06,07,09,34,11.90
2021,06,07,09,35,11.90
2021,06,07,09,36,12.00
2021,06,07,09,37,12.00
2021,06,07,09,38,12.00
2021,06,07,09,39,12.00
2021,06,07,09,40,12.10
2021,06,07,09,41,12.00
2021,06,07,09,42,12.00
2021,06,07,09,43,12.00
2021,06,07,09,44,12.10
2021,06,07,09,45,12.10
2021,06,07,09,46,12.10
2021,06,07,09,47,12.20
2021,06,07,09,48,12.20
2021,06,07,09,49,12.20
2021,06,07,09,50,12.20
2021,06,07,09,51,12.20
2021,06,07,09,52,12.30
2021,06,07,09,53,12.40
2021,06,07,09,54,12.40
2021,06,07,09,55,12.50
2021,06,07,09,56,12.50
2021,06,07,09,57,12.60
2021,06,07,09,58,12.60
2021,06,07,09,59,12.70
2021,06,07,10,00,12.60
2021,06,07,10,01,12.60
2021,06,07,10,02,12.70
2021,06,07,10,03,12.70
2021,06,07,10,04,12.70
2021,06,07,10,05,12.70
2021,06,07,10,06,12.80
2021,06,07,10,07,12.80
2021,06,07,10,08,12.90
2021,06,07,10,09,12.80
2021,06,07,10,10,12.80
2021,06,07,10,11,12.80
2021,06,07,10,12,12.80
2021,06,07,10,13,12.80
2021,06,07,10,14,12.80
2021,06,07,10,15,12.70
2021,06,07,10,16,12.70
2021,06,07,10,17,12.50
2021,06,07,10,18,12.40
2021,06,07,10,19,12.20
2021,06,07,10,20,12.00
2021,06,07,10,21,11.90
2021,06,07,10,22,11.80
2021,06,07,10,23,11.80
2021,06,07,10,24,11.90
2021,06,07,10,25,12.00
2021,06,07,10,26,12.00
2021,06,07,10,27,11.90
2021,06,07,10,28,11.90
2021,06,07,10,29,11.90
2021,06,07,10,30,11.80
2021,06,07,10,31,11.80
2021,06,07,10,32,11.80
2021,06,07,10,33,11.90
2021,06,07,10,34,11.90
2021,06,07,10,35,11.90
2021,06,07,10,36,12.00
2021,06,07,10,37,12.00
2021,06,07,10,38,12.10
2021,06,07,10,39,12.20
2021,06,07,10,40,12.30
2021,06,07,10,41,12.30
2021,06,07,10,42,12.40
2021,06,07,10,43,12.40
2021,06,07,10,44,12.50
2021,06,07,10,45,12.50
2021,06,07,10,46,12.60
2021,06,07,10,47,12.70
2021,06,07,10,48,12.80
2021,06,07,10,49,12.80
2021,06,07,10,50,12.80
2021,06,07,10,51,12.80
2021,06,07,10,52,12.70
2021,06,07,10,53,12.70
2021,06,07,10,54,12.70
2021,06,07,10,55,12.60
2021,06,07,10,56,12.60
2021,06,07,10,57,12.50
2021,06,07,10,58,12.40
2021,06,07,10,59,12.40
2021,06,07,11,00,12.50
2021,06,07,11,01,12.70
2021,06,07,11,02,12.90
2021,06,07,11,03,13.00
2021,06,07,11,04,13.00
2021,06,07,11,05,13.00
2021,06,07,11,06,12.90
2021,06,07,11,07,12.90
2021,06,07,11,08,13.00
2021,06,07,11,09,13.00
2021,06,07,11,10,13.10
2021,06,07,11,11,13.10
2021,06,07,11,12,13.00
2021,06,07,11,13,13.00
2021,06,07,11,14,13.00
2021,06,07,11,15,13.10
2021,06,07,11,16,13.20
2021,06,07,11,17,13.20
2021,06,07,11,18,13.20
2021,06,07,11,19,13.20
2021,06,07,11,20,13.20
2021,06,07,11,21,13.30
2021,06,07,11,22,13.20
2021,06,07,11,23,13.20
2021,06,07,11,24,13.10
2021,06,07,11,25,12.90
2021,06,07,11,26,12.80
2021,06,07,11,27,12.70
2021,06,07,11,28,12.80
2021,06,07,11,29,12.80
2021,06,07,11,30,12.90
2021,06,07,11,31,13.00
2021,06,07,11,32,13.10
2021,06,07,11,33,13.20
2021,06,07,11,34,13.30
2021,06,07,11,35,13.40
2021,06,07,11,36,13.40
2021,06,07,11,37,13.40
2021,06,07,11,38,13.30
2021,06,07,11,39,13.10
2021,06,07,11,40,13.10
2021,06,07,11,41,13.00
2021,06,07,11,42,13.00
2021,06,07,11,43,12.90
2021,06,07,11,44,12.90
2021,06,07,11,45,12.90
2021,06,07,11,46,12.90
2021,06,07,11,47,12.90
2021,06,07,11,48,13.00
2021,06,07,11,49,13.10
2021,06,07,11,50,13.20
2021,06,07,11,51,13.30
2021,06,07,11,52,13.30
2021,06,07,11,53,13.40
2021,06,07,11,54,13.50
2021,06,07,11,55,13.50
2021,06,07,11,56,13.50
2021,06,07,11,57,13.40
2021,06,07,11,58,13.50
2021,06,07,11,59,13.50
2021,06,07,12,00,13.50
2021,06,07,12,01,13.40
2021,06,07,12,02,13.40
2021,06,07,12,03,13.40
2021,06,07,12,04,13.40
2021,06,07,12,05,13.50
2021,06,07,12,06,13.50
2021,06,07,12,07,13.40
2021,06,07,12,08,13.40
2021,06,07,12,09,13.40
2021,06,07,12,10,13.30
2021,06,07,12,11,13.30
2021,06,07,12,12,13.30
2021,06,07,12,13,13.20
2021,06,07,12,14,13.30
2021,06,07,12,15,13.40
2021,06,07,12,16,13.40
2021,06,07,12,17,13.40
2021,06,07,12,18,13.40
2021,06,07,12,19,13.50
2021,06,07,12,20,13.50
2021,06,07,12,21,13.60
2021,06,07,12,22,13.70
2021,06,07,12,23,13.70
2021,06,07,12,24,13.50
2021,06,07,12,25,13.50
2021,06,07,12,26,13.50
2021,06,07,12,27,13.60
2021,06,07,12,28,13.70
2021,06,07,12,29,13.80
2021,06,07,12,30,13.70
2021,06,07,12,31,13.70
2021,06,07,12,32,13.70
2021,06,07,12,33,13.70
2021,06,07,12,34,13.60
2021,06,07,12,35,13.60
2021,06,07,12,36,13.50
2021,06,07,12,37,13.50
2021,06,07,12,38,13.50
2021,06,07,12,39,13.40
2021,06,07,12,40,13.20
2021,06,07,12,41,13.10
2021,06,07,12,42,13.00
2021,06,07,12,43,13.00
2021,06,07,12,44,13.00
2021,06,07,12,45,13.10
2021,06,07,12,46,13.10
2021,06,07,12,47,13.20
2021,06,07,12,48,13.30
2021,06,07,12,49,13.30
2021,06,07,12,50,13.30
2021,06,07,12,51,13.40
2021,06,07,12,52,13.50
2021,06,07,12,53,13.60
2021,06,07,12,54,13.60
2021,06,07,12,55,13.60
2021,06,07,12,56,13.60
2021,06,07,12,57,13.70
2021,06,07,12,58,13.80
2021,06,07,12,59,13.90
2021,06,07,13,00,14.00
2021,06,07,13,01,13.90
2021,06,07,13,02,13.80
2021,06,07,13,03,13.70
2021,06,07,13,04,13.80
2021,06,07,13,05,13.80
2021,06,07,13,06,13.70
2021,06,07,13,07,13.70
2021,06,07,13,08,13.80
2021,06,07,13,09,13.80
2021,06,07,13,10,13.80
2021,06,07,13,11,13.80
2021,06,07,13,12,13.80
2021,06,07,13,13,13.80
2021,06,07,13,14,13.90
2021,06,07,13,15,13.90
2021,06,07,13,16,14.00
2021,06,07,13,17,14.10
2021,06,07,13,18,14.00
2021,06,07,13,19,13.90
2021,06,07,13,20,13.80
2021,06,07,13,21,13.60
2021,06,07,13,22,13.50
2021,06,07,13,23,13.50
2021,06,07,13,24,13.40
2021,06,07,13,25,13.50
2021,06,07,13,26,13.50
2021,06,07,13,27,13.60
2021,06,07,13,28,13.70
2021,06,07,13,29,13.70
2021,06,07,13,30,13.60
2021,06,07,13,31,13.60
2021,06,07,13,32,13.50
2021,06,07,13,33,13.40
2021,06,07,13,34,13.40
2021,06,07,13,35,13.40
2021,06,07,13,36,13.50
2021,06,07,13,37,13.50
2021,06,07,13,38,13.60
2021,06,07,13,39,13.60
2021,06,07,13,40,13.60
2021,06,07,13,41,13.60
2021,06,07,13,42,13.70
2021,06,07,13,43,13.80
2021,06,07,13,44,13.80
2021,06,07,13,45,13.80
2021,06,07,13,46,13.70
2021,06,07,13,47,13.60
2021,06,07,13,48,13.60
2021,06,07,13,49,13.60
2021,06,07,13,50,13.80
2021,06,07,13,51,13.90
2021,06,07,13,52,13.90
2021,06,07,13,53,14.10
2021,06,07,13,54,14.10
2021,06,07,13,55,14.10
2021,06,07,13,56,14.10
2021,06,07,13,57,14.10
2021,06,07,13,58,14.20
2021,06,07,13,59,14.20
2021,06,07,14,00,14.20
2021,06,07,14,01,14.30
2021,06,07,14,02,14.30
2021,06,07,14,03,14.30
2021,06,07,14,04,14.20
2021,06,07,14,05,14.10
2021,06,07,14,06,14.00
2021,06,07,14,07,14.00
2021,06,07,14,08,13.90
2021,06,07,14,09,13.90
2021,06,07,14,10,13.90
2021,06,07,14,11,13.90
2021,06,07,14,12,14.00
2021,06,07,14,13,14.00
2021,06,07,14,14,14.00
2021,06,07,14,15,14.10
2021,06,07,14,16,14.00
2021,06,07,14,17,14.00
2021,06,07,14,18,14.00
2021,06,07,14,19,13.90
2021,06,07,14,20,14.00
2021,06,07,14,21,14.00
2021,06,07,14,22,14.00
2021,06,07,14,23,14.10
2021,06,07,14,24,14.10
2021,06,07,14,25,14.00
2021,06,07,14,26,14.00
2021,06,07,14,27,13.90
2021,06,07,14,28,13.80
2021,06,07,14,29,13.80
2021,06,07,14,30,13.90
2021,06,07,14,31,14.00
2021,06,07,14,32,14.10
2021,06,07,14,33,14.20
2021,06,07,14,34,14.30
2021,06,07,14,35,14.50
2021,06,07,14,36,14.50
2021,06,07,14,37,14.60
2021,06,07,14,38,14.70
2021,06,07,14,39,14.70
2021,06,07,14,40,14.80
2021,06,07,14,41,14.80
2021,06,07,14,42,14.90
2021,06,07,14,43,14.90
2021,06,07,14,44,14.90
2021,06,07,14,45,15.00
2021,06,07,14,46,15.00
2021,06,07,14,47,15.20
2021,06,07,14,48,15.20
2021,06,07,14,49,15.30
2021,06,07,14,50,15.30
2021,06,07,14,51,15.30
2021,06,07,14,52,15.30
2021,06,07,14,53,15.20
2021,06,07,14,54,15.10
2021,06,07,14,55,15.00
2021,06,07,14,56,15.00
2021,06,07,14,57,15.00
2021,06,07,14,58,15.10
2021,06,07,14,59,15.20
2021,06,07,15,00,15.10
2021,06,07,15,01,15.10
2021,06,07,15,02,15.00
2021,06,07,15,03,15.00
2021,06,07,15,04,14.90
2021,06,07,15,05,14.90
2021,06,07,15,06,14.80
2021,06,07,15,07,14.70
2021,06,07,15,08,14.60
2021,06,07,15,09,14.50
2021,06,07,15,10,14.40
2021,06,07,15,11,14.40
2021,06,07,15,12,14.40
2021,06,07,15,13,14.40
2021,06,07,15,14,14.40
2021,06,07,15,15,14.50
2021,06,07,15,16,14.60
2021,06,07,15,17,14.70
2021,06,07,15,18,14.70
2021,06,07,15,19,14.70
2021,06,07,15,20,14.80
2021,06,07,15,21,14.90
2021,06,07,15,22,15.00
2021,06,07,15,23,15.10
2021,06,07,15,24,15.10
2021,06,07,15,25,15.10
2021,06,07,15,26,15.10
2021,06,07,15,27,15.10
2021,06,07,15,28,15.20
2021,06,07,15,29,15.10
2021,06,07,15,30,15.10
2021,06,07,15,31,15.20
2021,06,07,15,32,15.30
2021,06,07,15,33,15.40
2021,06,07,15,34,15.40
2021,06,07,15,35,15.50
2021,06,07,15,36,15.60
2021,06,07,15,37,15.70
2021,06,07,15,38,15.80
2021,06,07,15,39,15.80
2021,06,07,15,40,15.80
2021,06,07,15,41,15.80
2021,06,07,15,42,15.70
2021,06,07,15,43,15.70
2021,06,07,15,44,15.60
2021,06,07,15,45,15.60
2021,06,07,15,46,15.60
2021,06,07,15,47,15.60
2021,06,07,15,48,15.60
2021,06,07,15,49,15.50
2021,06,07,15,50,15.50
2021,06,07,15,51,15.50
2021,06,07,15,52,15.50
2021,06,07,15,53,15.40
2021,06,07,15,54,15.40
2021,06,07,15,55,15.40
2021,06,07,15,56,15.40
2021,06,07,15,57,15.50
2021,06,07,15,58,15.60
2021,06,07,15,59,15.70
2021,06,07,16,00,15.70
2021,06,07,16,01,15.60
2021,06,07,16,02,15.60
2021,06,07,16,03,15.50
2021,06,07,16,04,15.40
2021,06,07,16,05,15.20
2021,06,07,16,06,15.20
2021,06,07,16,07,15.20
2021,06,07,16,08,15.30
2021,06,07,16,09,15.30
2021,06,07,16,10,15.40
2021,06,07,16,11,15.50
2021,06,07,16,12,15.70
2021,06,07,16,13,15.80
2021,06,07,16,14,15.90
2021,06,07,16,15,16.00
2021,06,07,16,16,16.00
2021,06,07,16,17,16.20
2021,06,07,16,18,16.20
2021,06,07,16,19,16.30
2021,06,07,16,20,16.30
2021,06,07,16,21,16.20
2021,06,07,16,22,16.20
2021,06,07,16,23,16.10
2021,06,07,16,24,15.90
2021,06,07,16,25,15.70
2021,06,07,16,26,15.40
2021,06,07,16,27,15.20
2021,06,07,16,28,15.10
2021,06,07,16,29,15.10
2021,06,07,16,30,15.10
2021,06,07,16,31,15.10
2021,06,07,16,32,15.20
2021,06,07,16,33,15.30
2021,06,07,16,34,15.30
2021,06,07,16,35,15.40
2021,06,07,16,36,15.40
2021,06,07,16,37,15.30
2021,06,07,16,38,15.20
2021,06,07,16,39,15.20
2021,06,07,16,40,15.20
2021,06,07,16,41,15.20
2021,06,07,16,42,15.30
2021,06,07,16,43,15.30
2021,06,07,16,44,15.40
2021,06,07,16,45,15.40
2021,06,07,16,46,15.30
2021,06,07,16,47,15.30
2021,06,07,16,48,15.30
2021,06,07,16,49,15.30
2021,06,07,16,50,15.20
2021,06,07,16,51,15.20
2021,06,07,16,52,15.10
2021,06,07,16,53,15.00
2021,06,07,16,54,15.00
2021,06,07,16,55,14.90
2021,06,07,16,56,14.90
2021,06,07,16,57,15.00
2021,06,07,16,58,15.10
2021,06,07,16,59,15.20
2021,06,07,17,00,15.30
2021,06,07,17,01,15.50
2021,06,07,17,02,15.60
2021,06,07,17,03,15.70
2021,06,07,17,04,15.80
2021,06,07,17,05,15.80
2021,06,07,17,06,15.70
2021,06,07,17,07,15.60
2021,06,07,17,08,15.50
2021,06,07,17,09,15.50
2021,06,07,17,10,15.40
2021,06,07,17,11,15.40
2021,06,07,17,12,15.30
2021,06,07,17,13,15.30
2021,06,07,17,14,15.30
2021,06,07,17,15,15.30
2021,06,07,17,16,15.20
2021,06,07,17,17,15.20
2021,06,07,17,18,15.20
2021,06,07,17,19,15.20
2021,06,07,17,20,15.20
2021,06,07,17,21,15.30
2021,06,07,17,22,15.40
2021,06,07,17,23,15.50
2021,06,07,17,24,15.60
2021,06,07,17,25,15.70
2021,06,07,17,26,15.80
2021,06,07,17,27,15.90
2021,06,07,17,28,15.90
2021,06,07,17,29,16.00
2021,06,07,17,30,16.00
2021,06,07,17,31,16.10
2021,06,07,17,32,16.10
2021,06,07,17,33,16.20
2021,06,07,17,34,16.20
2021,06,07,17,35,16.30
2021,06,07,17,36,16.30
2021,06,07,17,37,16.30
2021,06,07,17,38,16.30
2021,06,07,17,39,16.40
2021,06,07,17,40,16.40
2021,06,07,17,41,16.40
2021,06,07,17,42,16.40
2021,06,07,17,43,16.40
2021,06,07,17,44,16.40
2021,06,07,17,45,16.30
2021,06,07,17,46,16.30
2021,06,07,17,47,16.30
2021,06,07,17,48,16.30
2021,06,07,17,49,16.40
2021,06,07,17,50,16.40
2021,06,07,17,51,16.40
2021,06,07,17,52,16.40
2021,06,07,17,53,16.40
2021,06,07,17,54,16.30
2021,06,07,17,55,16.20
2021,06,07,17,56,16.20
2021,06,07,17,57,16.20
2021,06,07,17,58,16.20
2021,06,07,17,59,16.20
2021,06,07,18,00,16.20
2021,06,07,18,01,16.20
2021,06,07,18,02,16.20
2021,06,07,18,03,16.20
2021,06,07,18,04,16.20
2021,06,07,18,05,16.20
2021,06,07,18,06,16.20
2021,06,07,18,07,16.30
2021,06,07,18,08,16.30
2021,06,07,18,09,16.20
2021,06,07,18,10,16.20
2021,06,07,18,11,16.10
2021,06,07,18,12,16.10
2021,06,07,18,13,16.10
2021,06,07,18,14,16.00
2021,06,07,18,15,16.00
2021,06,07,18,16,15.90
2021,06,07,18,17,15.90
2021,06,07,18,18,15.90
2021,06,07,18,19,15.90
2021,06,07,18,20,15.90
2021,06,07,18,21,15.90
2021,06,07,18,22,15.90
2021,06,07,18,23,15.90
2021,06,07,18,24,15.90
2021,06,07,18,25,15.90
2021,06,07,18,26,15.80
2021,06,07,18,27,15.80
2021,06,07,18,28,15.70
2021,06,07,18,29,15.70
2021,06,07,18,30,15.60
2021,06,07,18,31,15.60